AAY1602 KSNA-KEUG

Flight info

Callsign AAY1602
Flight time 1h 55m
Altitude 36000
Route HHERO3 EHF NURAY LIN J189 LMT
Aircraft A320/M-SDFGHIRWYZ/SB1

Departure

Time 2026-04-20 01:58
Airport John Wayne Orange County International Airport (KSNA)

Arrival

Time 2026-04-20 03:54
Airport Eugene Airport (KEUG)
Time Latitude Longitude Altitude Speed Heading
2026-04-20 01:22 33.67682 -117.86392 55 ft 0 kts 118°
2026-04-20 01:38 33.67682 -117.86393 55 ft 0 kts 118°
2026-04-20 01:44 33.67693 -117.86417 49 ft 4 kts 120°
2026-04-20 01:44 33.67705 -117.86445 49 ft 4 kts 100°
2026-04-20 01:44 33.67704 -117.86463 51 ft 1 kts 28°
2026-04-20 01:47 33.67705 -117.86463 51 ft 1 kts 28°
2026-04-20 01:48 33.67729 -117.86448 55 ft 6 kts 27°
2026-04-20 01:48 33.67793 -117.86407 54 ft 16 kts 28°
2026-04-20 01:48 33.67888 -117.86346 55 ft 16 kts 28°
2026-04-20 01:48 33.67995 -117.86279 55 ft 17 kts 28°
2026-04-20 01:49 33.68026 -117.86259 55 ft 0 kts 28°
2026-04-20 01:49 33.68058 -117.86292 55 ft 11 kts 303°
2026-04-20 01:49 33.68090 -117.86363 55 ft 9 kts 298°
2026-04-20 01:49 33.68118 -117.86427 55 ft 0 kts 297°
2026-04-20 01:57 33.68122 -117.86437 55 ft 9 kts 297°
2026-04-20 01:57 33.68148 -117.86510 55 ft 8 kts 263°
2026-04-20 01:57 33.68138 -117.86523 52 ft 0 kts 211°
2026-04-20 01:58 33.68011 -117.86606 51 ft 62 kts 208°
2026-04-20 01:58 33.67376 -117.87010 57 ft 140 kts 208°
2026-04-20 01:58 33.66452 -117.87590 684 ft 153 kts 208°
2026-04-20 01:58 33.65475 -117.88191 1487 ft 162 kts 208°
2026-04-20 01:59 33.64442 -117.88820 2155 ft 172 kts 206°
2026-04-20 01:59 33.63219 -117.89195 2473 ft 194 kts 186°
2026-04-20 01:59 33.61793 -117.89372 2764 ft 219 kts 185°
2026-04-20 01:59 33.60195 -117.89566 3172 ft 243 kts 185°
2026-04-20 02:00 33.58449 -117.89783 3773 ft 258 kts 186°
2026-04-20 02:00 33.56740 -117.90474 4613 ft 266 kts 213°
2026-04-20 02:00 33.55333 -117.91932 5538 ft 269 kts 221°
2026-04-20 02:00 33.53966 -117.93473 6449 ft 272 kts 221°
2026-04-20 02:01 33.52588 -117.95043 7303 ft 275 kts 221°
2026-04-20 02:01 33.51189 -117.96636 7816 ft 279 kts 221°
2026-04-20 02:01 33.49780 -117.98239 7971 ft 279 kts 221°
2026-04-20 02:01 33.48389 -117.99860 8005 ft 279 kts 226°
2026-04-20 02:02 33.47292 -118.01762 8179 ft 286 kts 238°
2026-04-20 02:02 33.46305 -118.03832 9096 ft 286 kts 238°
2026-04-20 02:02 33.45293 -118.05895 9976 ft 289 kts 237°
2026-04-20 02:02 33.44243 -118.08008 10460 ft 306 kts 237°
2026-04-20 02:03 33.43114 -118.10283 10696 ft 330 kts 239°
2026-04-20 02:03 33.42179 -118.12901 10942 ft 354 kts 251°
2026-04-20 02:03 33.41738 -118.15844 11484 ft 365 kts 264°
2026-04-20 02:03 33.41841 -118.18910 12167 ft 373 kts 276°
2026-04-20 02:04 33.42392 -118.21962 12882 ft 378 kts 281°
2026-04-20 02:04 33.42987 -118.25036 13600 ft 381 kts 281°
2026-04-20 02:04 33.43592 -118.28143 14242 ft 385 kts 282°
2026-04-20 02:04 33.44481 -118.31188 14858 ft 391 kts 292°
2026-04-20 02:05 33.45725 -118.34098 15489 ft 394 kts 295°
2026-04-20 02:05 33.47001 -118.37015 16104 ft 397 kts 295°
2026-04-20 02:05 33.48285 -118.39951 16729 ft 399 kts 295°
2026-04-20 02:05 33.49784 -118.42766 17335 ft 404 kts 307°
2026-04-20 02:06 33.51824 -118.45109 17905 ft 410 kts 322°
2026-04-20 02:06 33.54318 -118.46805 18435 ft 417 kts 336°
2026-04-20 02:06 33.57134 -118.47712 18925 ft 422 kts 351°
2026-04-20 02:06 33.60078 -118.47742 19422 ft 426 kts
2026-04-20 02:07 33.62994 -118.47341 19927 ft 428 kts
2026-04-20 02:07 33.65962 -118.46927 20439 ft 430 kts
2026-04-20 02:07 33.68938 -118.46517 20936 ft 431 kts
2026-04-20 02:07 33.71927 -118.46109 21422 ft 433 kts
2026-04-20 02:08 33.74938 -118.45938 21887 ft 434 kts 358°
2026-04-20 02:08 33.77966 -118.45947 22354 ft 436 kts 358°
2026-04-20 02:08 33.81008 -118.45954 22821 ft 438 kts 358°
2026-04-20 02:08 33.84064 -118.45961 23280 ft 440 kts 358°
2026-04-20 02:09 33.87132 -118.45967 23689 ft 442 kts 358°
2026-04-20 02:09 33.90212 -118.45972 24067 ft 443 kts 358°
2026-04-20 02:09 33.93304 -118.45974 24449 ft 445 kts 358°
2026-04-20 02:09 33.96400 -118.45976 24827 ft 446 kts 358°
2026-04-20 02:10 33.99507 -118.45987 25206 ft 447 kts 356°
2026-04-20 02:10 34.02601 -118.46333 25544 ft 447 kts 351°
2026-04-20 02:10 34.05696 -118.46812 25896 ft 449 kts 351°
2026-04-20 02:10 34.08799 -118.47294 26251 ft 450 kts 351°
2026-04-20 02:11 34.11909 -118.47777 26583 ft 451 kts 351°
2026-04-20 02:11 34.15028 -118.48258 26924 ft 453 kts 351°
2026-04-20 02:11 34.18159 -118.48740 27256 ft 454 kts 351°
2026-04-20 02:11 34.21254 -118.49213 27583 ft 455 kts 350°
2026-04-20 02:12 34.24402 -118.49698 27866 ft 457 kts 350°
2026-04-20 02:12 34.27567 -118.50188 28168 ft 459 kts 350°
2026-04-20 02:12 34.30739 -118.50680 28496 ft 460 kts 350°
2026-04-20 02:12 34.33916 -118.51171 28879 ft 460 kts 350°
2026-04-20 02:13 34.37082 -118.51658 29337 ft 457 kts 350°
2026-04-20 02:13 34.40233 -118.52142 29805 ft 455 kts 350°
2026-04-20 02:13 34.43368 -118.52626 30242 ft 453 kts 350°
2026-04-20 02:13 34.46491 -118.53111 30588 ft 452 kts 350°
2026-04-20 02:14 34.49608 -118.53592 30947 ft 451 kts 349°
2026-04-20 02:14 34.52721 -118.54070 31300 ft 450 kts 349°
2026-04-20 02:14 34.55823 -118.54550 31661 ft 449 kts 349°
2026-04-20 02:14 34.58919 -118.55032 32031 ft 448 kts 349°
2026-04-20 02:15 34.62006 -118.55514 32399 ft 447 kts 349°
2026-04-20 02:15 34.65087 -118.55994 32764 ft 446 kts 349°
2026-04-20 02:15 34.68163 -118.56471 33104 ft 445 kts 349°
2026-04-20 02:15 34.71235 -118.56946 33444 ft 445 kts 349°
2026-04-20 02:16 34.74303 -118.57421 33788 ft 444 kts 349°
2026-04-20 02:16 34.77361 -118.57897 34108 ft 443 kts 349°
2026-04-20 02:16 34.80416 -118.58373 34377 ft 443 kts 349°
2026-04-20 02:16 34.83475 -118.58852 34615 ft 443 kts 349°
2026-04-20 02:17 34.86537 -118.59331 34880 ft 444 kts 349°
2026-04-20 02:17 34.89600 -118.59809 35120 ft 444 kts 349°
2026-04-20 02:17 34.92668 -118.60290 35343 ft 445 kts 349°
2026-04-20 02:17 34.95740 -118.60775 35566 ft 445 kts 348°
2026-04-20 02:18 34.98748 -118.61571 35795 ft 441 kts 339°
2026-04-20 02:18 35.01592 -118.62920 35966 ft 437 kts 330°
2026-04-20 02:18 35.06591 -118.67038 36011 ft 433 kts 317°
2026-04-20 02:19 35.11206 -118.71731 35982 ft 431 kts 317°
2026-04-20 02:19 35.15822 -118.76400 35917 ft 431 kts 317°
2026-04-20 02:20 35.20435 -118.81078 35899 ft 430 kts 317°
2026-04-20 02:20 35.25037 -118.85763 35895 ft 430 kts 317°
2026-04-20 02:21 35.31933 -118.92807 35878 ft 430 kts 317°
2026-04-20 02:22 35.36526 -118.97501 35875 ft 430 kts 317°
2026-04-20 02:22 35.41112 -119.02185 35877 ft 429 kts 317°
2026-04-20 02:23 35.45693 -119.06871 35878 ft 429 kts 317°
2026-04-20 02:23 35.50682 -119.10912 35881 ft 435 kts 332°
2026-04-20 02:24 35.56237 -119.13898 35878 ft 436 kts 332°
2026-04-20 02:24 35.61758 -119.16864 35893 ft 436 kts 332°
2026-04-20 02:25 35.67317 -119.19848 35888 ft 436 kts 332°
2026-04-20 02:25 35.72875 -119.22838 35883 ft 436 kts 332°
2026-04-20 02:26 35.78435 -119.25836 35879 ft 436 kts 332°
2026-04-20 02:26 35.83991 -119.28833 35881 ft 436 kts 332°
2026-04-20 02:27 35.89545 -119.31842 35872 ft 436 kts 332°
2026-04-20 02:27 35.95097 -119.34848 35877 ft 436 kts 332°
2026-04-20 02:28 36.00650 -119.37864 35887 ft 436 kts 332°
2026-04-20 02:28 36.06205 -119.40886 35873 ft 436 kts 332°
2026-04-20 02:29 36.11762 -119.43916 35874 ft 436 kts 332°
2026-04-20 02:29 36.17317 -119.46946 35876 ft 437 kts 332°
2026-04-20 02:30 36.22876 -119.49982 35872 ft 437 kts 332°
2026-04-20 02:30 36.28404 -119.53005 35862 ft 437 kts 332°
2026-04-20 02:31 36.33969 -119.56049 35872 ft 437 kts 331°
2026-04-20 02:31 36.39540 -119.59100 35873 ft 438 kts 331°
2026-04-20 02:32 36.45112 -119.62169 35868 ft 438 kts 331°
2026-04-20 02:32 36.50689 -119.65241 35864 ft 438 kts 331°
2026-04-20 02:33 36.56267 -119.68312 35877 ft 439 kts 331°
2026-04-20 02:33 36.61605 -119.71868 35872 ft 432 kts 320°
2026-04-20 02:34 36.66549 -119.76139 35872 ft 433 kts 321°
2026-04-20 02:34 36.71504 -119.80415 35874 ft 433 kts 321°
2026-04-20 02:35 36.76463 -119.84698 35884 ft 434 kts 320°
2026-04-20 02:35 36.81393 -119.88954 35884 ft 434 kts 320°
2026-04-20 02:36 36.86355 -119.93245 35886 ft 434 kts 320°
2026-04-20 02:36 36.91309 -119.97551 35896 ft 434 kts 320°
2026-04-20 02:37 36.96269 -120.01870 35879 ft 435 kts 320°
2026-04-20 02:37 37.01236 -120.06193 35875 ft 435 kts 320°
2026-04-20 02:38 37.06201 -120.10516 35871 ft 435 kts 320°
2026-04-20 02:38 37.11164 -120.14847 35882 ft 435 kts 320°
2026-04-20 02:39 37.15293 -120.18456 35871 ft 435 kts 320°
2026-04-20 02:39 37.20262 -120.22810 35867 ft 436 kts 320°
2026-04-20 02:40 37.25229 -120.27173 35878 ft 436 kts 319°
2026-04-20 02:40 37.30195 -120.31536 35858 ft 436 kts 319°
2026-04-20 02:41 37.35163 -120.35908 35858 ft 436 kts 319°
2026-04-20 02:41 37.40131 -120.40287 35874 ft 436 kts 319°
2026-04-20 02:42 37.45102 -120.44676 35880 ft 436 kts 319°
2026-04-20 02:42 37.50065 -120.49067 35876 ft 436 kts 319°
2026-04-20 02:43 37.55031 -120.53464 35872 ft 436 kts 319°
2026-04-20 02:43 37.59956 -120.57834 35879 ft 436 kts 319°
2026-04-20 02:44 37.64921 -120.62243 35872 ft 437 kts 319°
2026-04-20 02:44 37.69885 -120.66669 35865 ft 437 kts 319°
2026-04-20 02:45 37.74850 -120.71103 35882 ft 437 kts 319°
2026-04-20 02:45 37.79832 -120.75554 35859 ft 439 kts 319°
2026-04-20 02:46 37.84825 -120.80026 35856 ft 440 kts 319°
2026-04-20 02:46 37.89832 -120.84508 35865 ft 441 kts 319°
2026-04-20 02:47 37.94840 -120.89004 35871 ft 441 kts 319°
2026-04-20 02:47 37.99843 -120.93508 35888 ft 441 kts 319°
2026-04-20 02:48 38.04860 -120.97924 35890 ft 445 kts 323°
2026-04-20 02:48 38.10707 -121.00840 35888 ft 461 kts 342°
2026-04-20 02:49 38.17098 -121.01974 35879 ft 465 kts 347°
2026-04-20 02:49 38.23513 -121.03053 35881 ft 465 kts 346°
2026-04-20 02:50 38.29933 -121.04143 35886 ft 465 kts 347°
2026-04-20 02:50 38.36353 -121.05229 35887 ft 466 kts 347°
2026-04-20 02:51 38.42779 -121.06320 35887 ft 466 kts 347°
2026-04-20 02:51 38.49204 -121.07407 35887 ft 466 kts 347°
2026-04-20 02:52 38.55640 -121.08490 35888 ft 466 kts 347°
2026-04-20 02:52 38.62069 -121.09585 35890 ft 466 kts 347°
2026-04-20 02:53 38.68500 -121.10684 35921 ft 466 kts 347°
2026-04-20 02:53 38.74932 -121.11781 35928 ft 466 kts 347°
2026-04-20 02:54 38.81362 -121.12873 35934 ft 466 kts 347°
2026-04-20 02:54 38.87791 -121.13963 35944 ft 466 kts 347°
2026-04-20 02:55 38.94179 -121.15047 35937 ft 466 kts 347°
2026-04-20 02:55 39.00606 -121.16149 35933 ft 466 kts 347°
2026-04-20 02:56 39.07035 -121.17266 35930 ft 467 kts 347°
2026-04-20 02:56 39.13476 -121.18378 35939 ft 467 kts 347°
2026-04-20 02:57 39.19931 -121.19484 35953 ft 468 kts 347°
2026-04-20 02:57 39.26400 -121.20599 35945 ft 469 kts 347°
2026-04-20 02:58 39.32869 -121.21723 35939 ft 469 kts 347°
2026-04-20 02:58 39.39341 -121.22846 35927 ft 469 kts 347°
2026-04-20 02:59 39.45821 -121.23968 35917 ft 470 kts 347°
2026-04-20 02:59 39.52309 -121.25094 35920 ft 471 kts 347°
2026-04-20 03:00 39.58800 -121.26227 35938 ft 471 kts 347°
2026-04-20 03:00 39.65298 -121.27361 35935 ft 471 kts 347°
2026-04-20 03:01 39.71801 -121.28496 35937 ft 471 kts 347°
2026-04-20 03:01 39.78302 -121.29644 35949 ft 472 kts 347°
2026-04-20 03:02 39.84816 -121.30791 35942 ft 473 kts 347°
2026-04-20 03:02 39.91342 -121.31933 35934 ft 473 kts 347°
2026-04-20 03:03 39.97872 -121.33088 35942 ft 474 kts 347°
2026-04-20 03:03 40.04382 -121.34239 35932 ft 476 kts 347°
2026-04-20 03:04 40.10951 -121.35397 35934 ft 477 kts 347°
2026-04-20 03:04 40.17543 -121.36555 35942 ft 479 kts 347°
2026-04-20 03:05 40.24151 -121.37728 35941 ft 479 kts 347°
2026-04-20 03:05 40.30769 -121.38912 35944 ft 480 kts 347°
2026-04-20 03:06 40.37392 -121.40088 35946 ft 480 kts 347°
2026-04-20 03:06 40.44015 -121.41279 35942 ft 480 kts 347°
2026-04-20 03:07 40.50638 -121.42469 35946 ft 480 kts 347°
2026-04-20 03:07 40.57259 -121.43656 35934 ft 480 kts 347°
2026-04-20 03:08 40.63876 -121.44853 35931 ft 480 kts 347°
2026-04-20 03:08 40.70496 -121.46047 35919 ft 481 kts 347°
2026-04-20 03:09 40.77142 -121.47240 35891 ft 483 kts 347°
2026-04-20 03:09 40.83806 -121.48435 35909 ft 484 kts 347°
2026-04-20 03:10 40.90429 -121.49643 35899 ft 484 kts 347°
2026-04-20 03:10 40.97114 -121.50857 35903 ft 485 kts 347°
2026-04-20 03:11 41.03808 -121.52071 35917 ft 485 kts 347°
2026-04-20 03:11 41.10504 -121.53293 35912 ft 485 kts 347°
2026-04-20 03:12 41.17181 -121.54517 35940 ft 484 kts 347°
2026-04-20 03:12 41.23842 -121.55741 35963 ft 483 kts 347°
2026-04-20 03:13 41.30499 -121.56967 35965 ft 483 kts 347°
2026-04-20 03:13 41.37148 -121.58185 35966 ft 483 kts 347°
2026-04-20 03:14 41.43805 -121.59412 35956 ft 483 kts 347°
2026-04-20 03:14 41.50466 -121.60650 35947 ft 483 kts 347°
2026-04-20 03:15 41.57090 -121.61868 35937 ft 484 kts 347°
2026-04-20 03:15 41.63770 -121.63102 35934 ft 486 kts 348°
2026-04-20 03:16 41.70477 -121.64350 35918 ft 487 kts 348°
2026-04-20 03:16 41.77198 -121.65600 35947 ft 489 kts 348°
2026-04-20 03:17 41.83955 -121.66865 35876 ft 491 kts 348°
2026-04-20 03:17 41.90739 -121.68127 35892 ft 493 kts 348°
2026-04-20 03:18 41.97537 -121.69392 35917 ft 494 kts 348°
2026-04-20 03:18 42.04347 -121.70680 35924 ft 494 kts 348°
2026-04-20 03:19 42.11159 -121.71968 35926 ft 494 kts 348°
2026-04-20 03:19 42.17975 -121.73260 35929 ft 494 kts 348°
2026-04-20 03:20 42.24762 -121.74616 35885 ft 492 kts 348°
2026-04-20 03:20 42.31518 -121.76009 35913 ft 491 kts 347°
2026-04-20 03:21 42.38264 -121.77391 35695 ft 489 kts 348°
2026-04-20 03:21 42.41625 -121.78077 34957 ft 490 kts 348°
2026-04-20 03:21 42.44957 -121.78768 34183 ft 492 kts 348°
2026-04-20 03:21 42.48350 -121.79487 33292 ft 495 kts 348°
2026-04-20 03:22 42.51764 -121.80225 32360 ft 498 kts 348°
2026-04-20 03:22 42.55199 -121.80978 31445 ft 502 kts 348°
2026-04-20 03:22 42.58652 -121.81749 30512 ft 505 kts 348°
2026-04-20 03:22 42.62128 -121.82538 29482 ft 508 kts 348°
2026-04-20 03:23 42.65617 -121.83351 28382 ft 510 kts 348°
2026-04-20 03:23 42.69116 -121.84184 27321 ft 511 kts 348°
2026-04-20 03:23 42.72622 -121.85034 26440 ft 512 kts 348°
2026-04-20 03:23 42.76127 -121.85899 26081 ft 512 kts 348°
2026-04-20 03:24 42.79629 -121.86771 25866 ft 511 kts 348°
2026-04-20 03:24 42.83124 -121.87643 25896 ft 511 kts 348°
2026-04-20 03:24 42.86622 -121.88517 25895 ft 511 kts 348°
2026-04-20 03:24 42.90121 -121.89391 25858 ft 511 kts 348°
2026-04-20 03:25 42.93591 -121.90258 25270 ft 504 kts 348°
2026-04-20 03:25 42.97021 -121.91113 24499 ft 498 kts 348°
2026-04-20 03:25 43.00414 -121.91966 23792 ft 493 kts 348°
2026-04-20 03:25 43.03771 -121.92817 23043 ft 488 kts 348°
2026-04-20 03:26 43.07082 -121.93677 22329 ft 481 kts 348°
2026-04-20 03:26 43.10351 -121.94532 21632 ft 476 kts 348°
2026-04-20 03:26 43.13587 -121.95382 20965 ft 471 kts 348°
2026-04-20 03:26 43.16792 -121.96229 20304 ft 467 kts 348°
2026-04-20 03:27 43.19966 -121.97071 19664 ft 462 kts 348°
2026-04-20 03:27 43.23110 -121.97908 19025 ft 458 kts 348°
2026-04-20 03:27 43.26230 -121.98740 18408 ft 454 kts 348°
2026-04-20 03:27 43.29316 -121.99572 17742 ft 450 kts 348°
2026-04-20 03:28 43.32376 -122.00405 17081 ft 446 kts 348°
2026-04-20 03:28 43.35361 -122.01228 16459 ft 441 kts 348°
2026-04-20 03:28 43.41368 -122.02897 15967 ft 439 kts 348°
2026-04-20 03:29 43.44368 -122.03735 15999 ft 440 kts 348°
2026-04-20 03:29 43.47365 -122.04568 15997 ft 439 kts 348°
2026-04-20 03:29 43.50352 -122.05392 16012 ft 437 kts 348°
2026-04-20 03:29 43.53333 -122.06217 15944 ft 435 kts 348°
2026-04-20 03:30 43.56293 -122.07037 15648 ft 434 kts 348°
2026-04-20 03:30 43.59253 -122.07859 15399 ft 434 kts 348°
2026-04-20 03:30 43.62207 -122.08682 15152 ft 433 kts 348°
2026-04-20 03:30 43.65154 -122.09504 14908 ft 431 kts 348°
2026-04-20 03:31 43.68093 -122.10326 14662 ft 431 kts 348°
2026-04-20 03:31 43.71026 -122.11152 14438 ft 429 kts 348°
2026-04-20 03:31 43.73941 -122.11971 14199 ft 427 kts 348°
2026-04-20 03:31 43.76857 -122.12790 13961 ft 426 kts 348°
2026-04-20 03:32 43.78778 -122.13330 13804 ft 425 kts 348°
2026-04-20 03:32 43.81678 -122.14145 13572 ft 425 kts 348°
2026-04-20 03:32 43.84567 -122.14961 13357 ft 423 kts 348°
2026-04-20 03:32 43.87433 -122.15834 13146 ft 420 kts 342°
2026-04-20 03:33 43.90846 -122.18241 12860 ft 415 kts 324°
2026-04-20 03:33 43.93244 -122.20460 12649 ft 413 kts 324°
2026-04-20 03:33 43.95622 -122.22688 12444 ft 413 kts 324°
2026-04-20 03:33 43.97228 -122.24198 12302 ft 412 kts 324°
2026-04-20 03:34 43.99590 -122.26427 12088 ft 410 kts 324°
2026-04-20 03:34 44.01951 -122.28652 11794 ft 409 kts 324°
2026-04-20 03:34 44.04298 -122.30871 11495 ft 407 kts 324°
2026-04-20 03:34 44.06633 -122.33084 11193 ft 405 kts 324°
2026-04-20 03:35 44.08960 -122.35285 10902 ft 404 kts 324°
2026-04-20 03:35 44.11269 -122.37485 10610 ft 401 kts 324°
2026-04-20 03:35 44.13562 -122.39671 10326 ft 394 kts 324°
2026-04-20 03:35 44.15743 -122.41754 10232 ft 376 kts 324°
2026-04-20 03:36 44.17856 -122.43767 10163 ft 359 kts 324°
2026-04-20 03:36 44.19872 -122.45697 10091 ft 344 kts 324°
2026-04-20 03:36 44.21812 -122.47546 10034 ft 331 kts 324°
2026-04-20 03:36 44.23668 -122.49320 10031 ft 318 kts 324°
2026-04-20 03:37 44.25479 -122.51052 9774 ft 313 kts 324°
2026-04-20 03:37 44.27271 -122.52768 9429 ft 312 kts 324°
2026-04-20 03:37 44.29045 -122.54483 9085 ft 309 kts 324°
2026-04-20 03:37 44.30799 -122.56187 8769 ft 305 kts 324°
2026-04-20 03:38 44.32530 -122.57881 8405 ft 302 kts 324°
2026-04-20 03:38 44.34232 -122.59569 8041 ft 298 kts 324°
2026-04-20 03:38 44.35914 -122.61253 7649 ft 296 kts 324°
2026-04-20 03:38 44.37520 -122.63034 7299 ft 293 kts 312°
2026-04-20 03:39 44.38680 -122.65356 6920 ft 291 kts 301°
2026-04-20 03:39 44.39682 -122.67804 6554 ft 289 kts 300°
2026-04-20 03:39 44.40645 -122.70255 6199 ft 286 kts 300°
2026-04-20 03:39 44.41581 -122.72685 5996 ft 283 kts 299°
2026-04-20 03:40 44.42494 -122.75081 6004 ft 283 kts 299°
2026-04-20 03:40 44.43419 -122.77519 6002 ft 284 kts 299°
2026-04-20 03:40 44.44344 -122.79960 6006 ft 284 kts 299°
2026-04-20 03:40 44.45270 -122.82403 6003 ft 284 kts 299°
2026-04-20 03:41 44.46195 -122.84848 6005 ft 284 kts 299°
2026-04-20 03:41 44.47118 -122.87295 6004 ft 285 kts 299°
2026-04-20 03:41 44.48045 -122.89744 6004 ft 285 kts 299°
2026-04-20 03:41 44.48973 -122.92191 6007 ft 285 kts 299°
2026-04-20 03:42 44.50020 -122.94525 6008 ft 282 kts 315°
2026-04-20 03:42 44.51610 -122.96048 6002 ft 276 kts 340°
2026-04-20 03:42 44.53411 -122.96975 6007 ft 275 kts 344°
2026-04-20 03:42 44.55229 -122.97832 6008 ft 275 kts 344°
2026-04-20 03:43 44.57046 -122.98678 6006 ft 275 kts 344°
2026-04-20 03:43 44.58752 -122.99883 5808 ft 277 kts 322°
2026-04-20 03:43 44.59917 -123.02020 5382 ft 279 kts 295°
2026-04-20 03:43 44.60248 -123.04687 5047 ft 280 kts 266°
2026-04-20 03:44 44.59945 -123.07393 5013 ft 283 kts 260°
2026-04-20 03:44 44.59554 -123.10100 4967 ft 282 kts 259°
2026-04-20 03:44 44.59130 -123.12774 4570 ft 280 kts 255°
2026-04-20 03:44 44.58244 -123.15134 4221 ft 277 kts 227°
2026-04-20 03:45 44.56873 -123.16932 4097 ft 263 kts 220°
2026-04-20 03:45 44.55508 -123.18554 4003 ft 250 kts 219°
2026-04-20 03:45 44.54216 -123.20067 4011 ft 237 kts 219°
2026-04-20 03:45 44.52957 -123.21538 4011 ft 235 kts 219°
2026-04-20 03:46 44.51705 -123.23002 4016 ft 234 kts 219°
2026-04-20 03:46 44.50332 -123.24183 4020 ft 231 kts 191°
2026-04-20 03:46 44.48789 -123.23986 4022 ft 223 kts 150°
2026-04-20 03:46 44.47444 -123.22898 4012 ft 225 kts 153°
2026-04-20 03:47 44.45906 -123.22424 4013 ft 229 kts 173°
2026-04-20 03:47 44.44308 -123.22360 4017 ft 230 kts 177°
2026-04-20 03:47 44.42705 -123.22350 4023 ft 231 kts 177°
2026-04-20 03:47 44.41093 -123.22331 4018 ft 233 kts 177°
2026-04-20 03:48 44.39472 -123.22307 4016 ft 233 kts 177°
2026-04-20 03:48 44.37850 -123.22282 4010 ft 233 kts 177°
2026-04-20 03:48 44.36264 -123.22259 4017 ft 221 kts 176°
2026-04-20 03:48 44.34774 -123.22238 4034 ft 206 kts 176°
2026-04-20 03:49 44.33355 -123.22216 4013 ft 202 kts 176°
2026-04-20 03:49 44.31948 -123.22193 3901 ft 202 kts 176°
2026-04-20 03:49 44.30545 -123.22172 3671 ft 201 kts 176°
2026-04-20 03:49 44.29148 -123.22151 3412 ft 201 kts 176°
2026-04-20 03:50 44.27754 -123.22129 3152 ft 200 kts 176°
2026-04-20 03:50 44.26380 -123.22109 2888 ft 200 kts 177°
2026-04-20 03:50 44.24994 -123.22087 2624 ft 199 kts 178°
2026-04-20 03:50 44.23618 -123.22067 2357 ft 195 kts 179°
2026-04-20 03:51 44.22300 -123.22047 2122 ft 181 kts 179°
2026-04-20 03:51 44.21103 -123.22028 1874 ft 165 kts 180°
2026-04-20 03:51 44.19998 -123.22012 1665 ft 154 kts 180°
2026-04-20 03:51 44.18946 -123.21996 1459 ft 150 kts 180°
2026-04-20 03:52 44.17915 -123.21980 1263 ft 147 kts 180°
2026-04-20 03:52 44.16902 -123.21965 1066 ft 145 kts 180°
2026-04-20 03:52 44.15902 -123.21950 874 ft 142 kts 181°
2026-04-20 03:52 44.14921 -123.21936 669 ft 140 kts 182°
2026-04-20 03:53 44.13955 -123.21921 471 ft 138 kts 181°
2026-04-20 03:53 44.13012 -123.21904 361 ft 127 kts 182°
2026-04-20 03:53 44.12270 -123.21898 356 ft 82 kts 179°
2026-04-20 03:53 44.11834 -123.21892 359 ft 51 kts 179°
2026-04-20 03:54 44.11541 -123.21887 361 ft 38 kts 179°
2026-04-20 03:54 44.11365 -123.21862 357 ft 15 kts 128°
2026-04-20 03:54 44.11362 -123.21723 359 ft 14 kts 79°
2026-04-20 03:54 44.11471 -123.21695 361 ft 25 kts 358°
2026-04-20 03:55 44.11656 -123.21697 357 ft 28 kts 359°
2026-04-20 03:55 44.11858 -123.21701 360 ft 29 kts 358°
2026-04-20 03:55 44.11992 -123.21701 365 ft 19 kts 358°
2026-04-20 03:55 44.12089 -123.21665 359 ft 13 kts 76°
2026-04-20 03:56 44.12091 -123.21535 362 ft 11 kts 87°
2026-04-20 03:56 44.12102 -123.21442 370 ft 12 kts 84°
2026-04-20 03:56 44.12074 -123.21372 367 ft 8 kts 173°
2026-04-20 03:56 44.12033 -123.21395 370 ft 4 kts 208°
2026-04-20 03:57 44.12020 -123.21405 368 ft 0 kts 208°